Year,Month,Day,Hour,Minute,Value (Times are PST for temperature in C)
2012,06,28,00,00,13.20
2012,06,28,00,01,13.20
2012,06,28,00,02,13.20
2012,06,28,00,03,13.20
2012,06,28,00,04,13.20
2012,06,28,00,05,13.20
2012,06,28,00,06,13.20
2012,06,28,00,07,13.20
2012,06,28,00,08,13.20
2012,06,28,00,09,13.20
2012,06,28,00,10,13.20
2012,06,28,00,11,13.20
2012,06,28,00,12,13.20
2012,06,28,00,13,13.20
2012,06,28,00,14,13.20
2012,06,28,00,15,13.20
2012,06,28,00,16,13.20
2012,06,28,00,17,13.10
2012,06,28,00,18,13.10
2012,06,28,00,19,13.10
2012,06,28,00,20,13.10
2012,06,28,00,21,13.10
2012,06,28,00,22,13.10
2012,06,28,00,23,13.10
2012,06,28,00,24,13.10
2012,06,28,00,25,13.10
2012,06,28,00,26,13.10
2012,06,28,00,27,13.10
2012,06,28,00,28,13.10
2012,06,28,00,29,13.10
2012,06,28,00,30,13.10
2012,06,28,00,31,13.10
2012,06,28,00,32,13.10
2012,06,28,00,33,13.10
2012,06,28,00,34,13.10
2012,06,28,00,35,13.10
2012,06,28,00,36,13.10
2012,06,28,00,37,13.10
2012,06,28,00,38,13.10
2012,06,28,00,39,13.20
2012,06,28,00,40,13.20
2012,06,28,00,41,13.20
2012,06,28,00,42,13.20
2012,06,28,00,43,13.30
2012,06,28,00,44,13.30
2012,06,28,00,45,13.30
2012,06,28,00,46,13.30
2012,06,28,00,47,13.30
2012,06,28,00,48,13.40
2012,06,28,00,49,13.40
2012,06,28,00,50,13.40
2012,06,28,00,51,13.40
2012,06,28,00,52,13.40
2012,06,28,00,53,13.40
2012,06,28,00,54,13.40
2012,06,28,00,55,13.40
2012,06,28,00,56,13.40
2012,06,28,00,57,13.40
2012,06,28,00,58,13.40
2012,06,28,00,59,13.40
2012,06,28,01,00,13.40
2012,06,28,01,01,13.40
2012,06,28,01,02,13.40
2012,06,28,01,03,13.40
2012,06,28,01,04,13.40
2012,06,28,01,05,13.40
2012,06,28,01,06,13.50
2012,06,28,01,07,13.60
2012,06,28,01,08,13.70
2012,06,28,01,09,13.70
2012,06,28,01,10,13.80
2012,06,28,01,11,13.80
2012,06,28,01,12,13.80
2012,06,28,01,13,13.80
2012,06,28,01,14,13.80
2012,06,28,01,15,13.80
2012,06,28,01,16,13.80
2012,06,28,01,17,13.80
2012,06,28,01,18,13.80
2012,06,28,01,19,13.80
2012,06,28,01,20,13.80
2012,06,28,01,21,13.80
2012,06,28,01,22,13.80
2012,06,28,01,23,13.80
2012,06,28,01,24,13.80
2012,06,28,01,25,13.80
2012,06,28,01,26,13.70
2012,06,28,01,27,13.60
2012,06,28,01,28,13.50
2012,06,28,01,29,13.40
2012,06,28,01,30,13.30
2012,06,28,01,31,13.20
2012,06,28,01,32,13.10
2012,06,28,01,33,13.00
2012,06,28,01,34,12.90
2012,06,28,01,35,12.80
2012,06,28,01,36,12.70
2012,06,28,01,37,12.60
2012,06,28,01,38,12.50
2012,06,28,01,39,12.40
2012,06,28,01,40,12.30
2012,06,28,01,41,12.20
2012,06,28,01,42,12.10
2012,06,28,01,43,12.00
2012,06,28,01,44,11.90
2012,06,28,01,45,11.90
2012,06,28,01,46,11.80
2012,06,28,01,47,11.80
2012,06,28,01,48,11.70
2012,06,28,01,49,11.70
2012,06,28,01,50,11.80
2012,06,28,01,51,11.80
2012,06,28,01,52,11.80
2012,06,28,01,53,11.80
2012,06,28,01,54,11.90
2012,06,28,01,55,12.00
2012,06,28,01,56,12.00
2012,06,28,01,57,12.00
2012,06,28,01,58,12.10
2012,06,28,01,59,12.10
2012,06,28,02,00,12.10
2012,06,28,02,01,12.10
2012,06,28,02,02,12.20
2012,06,28,02,03,12.20
2012,06,28,02,04,12.30
2012,06,28,02,05,12.30
2012,06,28,02,06,12.30
2012,06,28,02,07,12.30
2012,06,28,02,08,12.30
2012,06,28,02,09,12.30
2012,06,28,02,10,12.30
2012,06,28,02,11,12.40
2012,06,28,02,12,12.40
2012,06,28,02,13,12.40
2012,06,28,02,14,12.40
2012,06,28,02,15,12.40
2012,06,28,02,16,12.30
2012,06,28,02,17,12.30
2012,06,28,02,18,12.30
2012,06,28,02,19,12.30
2012,06,28,02,20,12.20
2012,06,28,02,21,12.20
2012,06,28,02,22,12.20
2012,06,28,02,23,12.10
2012,06,28,02,24,12.10
2012,06,28,02,25,12.10
2012,06,28,02,26,12.00
2012,06,28,02,27,12.00
2012,06,28,02,28,11.90
2012,06,28,02,29,11.80
2012,06,28,02,30,11.80
2012,06,28,02,31,11.80
2012,06,28,02,32,11.80
2012,06,28,02,33,11.90
2012,06,28,02,34,11.90
2012,06,28,02,35,12.00
2012,06,28,02,36,12.00
2012,06,28,02,37,11.90
2012,06,28,02,38,11.90
2012,06,28,02,39,11.90
2012,06,28,02,40,11.90
2012,06,28,02,41,11.80
2012,06,28,02,42,11.90
2012,06,28,02,43,12.00
2012,06,28,02,44,12.00
2012,06,28,02,45,12.10
2012,06,28,02,46,12.20
2012,06,28,02,47,12.30
2012,06,28,02,48,12.40
2012,06,28,02,49,12.40
2012,06,28,02,50,12.50
2012,06,28,02,51,12.50
2012,06,28,02,52,12.60
2012,06,28,02,53,12.60
2012,06,28,02,54,12.70
2012,06,28,02,55,12.70
2012,06,28,02,56,12.80
2012,06,28,02,57,12.90
2012,06,28,02,58,12.90
2012,06,28,02,59,13.00
2012,06,28,03,00,13.10
2012,06,28,03,01,13.20
2012,06,28,03,02,13.30
2012,06,28,03,03,13.40
2012,06,28,03,06,13.70
2012,06,28,03,07,13.80
2012,06,28,03,08,13.80
2012,06,28,03,09,13.80
2012,06,28,03,10,13.80
2012,06,28,03,11,13.80
2012,06,28,03,12,13.80
2012,06,28,03,13,13.80
2012,06,28,03,14,13.80
2012,06,28,03,15,13.80
2012,06,28,03,16,13.80
2012,06,28,03,17,13.80
2012,06,28,03,18,13.80
2012,06,28,03,19,13.70
2012,06,28,03,20,13.70
2012,06,28,03,21,13.70
2012,06,28,03,22,13.70
2012,06,28,03,23,13.70
2012,06,28,03,24,13.80
2012,06,28,03,25,13.70
2012,06,28,03,26,13.70
2012,06,28,03,27,13.60
2012,06,28,03,28,13.40
2012,06,28,03,29,13.30
2012,06,28,03,30,13.20
2012,06,28,03,31,13.00
2012,06,28,03,32,12.80
2012,06,28,03,33,12.60
2012,06,28,03,34,12.50
2012,06,28,03,35,12.30
2012,06,28,03,36,12.20
2012,06,28,03,37,12.00
2012,06,28,03,38,11.90
2012,06,28,03,39,11.80
2012,06,28,03,40,11.70
2012,06,28,03,41,11.60
2012,06,28,03,42,11.60
2012,06,28,03,43,11.60
2012,06,28,03,44,11.60
2012,06,28,03,45,11.60
2012,06,28,03,46,11.60
2012,06,28,03,47,11.60
2012,06,28,03,48,11.60
2012,06,28,03,49,11.70
2012,06,28,03,50,11.70
2012,06,28,03,51,11.80
2012,06,28,03,52,11.90
2012,06,28,03,53,11.90
2012,06,28,03,54,12.00
2012,06,28,03,55,12.00
2012,06,28,03,56,12.00
2012,06,28,03,57,12.10
2012,06,28,03,58,12.10
2012,06,28,03,59,12.10
2012,06,28,04,00,12.20
2012,06,28,04,01,12.20
2012,06,28,04,02,12.40
2012,06,28,04,03,12.50
2012,06,28,04,04,12.60
2012,06,28,04,05,12.60
2012,06,28,04,06,12.70
2012,06,28,04,07,12.70
2012,06,28,04,08,12.80
2012,06,28,04,09,12.80
2012,06,28,04,10,12.90
2012,06,28,04,11,13.00
2012,06,28,04,12,13.00
2012,06,28,04,13,13.10
2012,06,28,04,14,13.10
2012,06,28,04,15,13.20
2012,06,28,04,16,13.10
2012,06,28,04,17,13.20
2012,06,28,04,18,13.10
2012,06,28,04,19,13.10
2012,06,28,04,20,13.10
2012,06,28,04,21,13.10
2012,06,28,04,22,13.10
2012,06,28,04,23,13.10
2012,06,28,04,24,13.10
2012,06,28,04,25,13.00
2012,06,28,04,26,13.00
2012,06,28,04,27,12.90
2012,06,28,04,28,12.90
2012,06,28,04,29,12.90
2012,06,28,04,30,12.90
2012,06,28,04,31,12.80
2012,06,28,04,32,12.80
2012,06,28,04,33,12.80
2012,06,28,04,34,12.80
2012,06,28,04,35,12.80
2012,06,28,04,36,12.80
2012,06,28,04,37,12.70
2012,06,28,04,38,12.70
2012,06,28,04,39,12.70
2012,06,28,04,40,12.70
2012,06,28,04,41,12.60
2012,06,28,04,42,12.60
2012,06,28,04,43,12.50
2012,06,28,04,44,12.50
2012,06,28,04,45,12.40
2012,06,28,04,46,12.30
2012,06,28,04,47,12.30
2012,06,28,04,48,12.30
2012,06,28,04,49,12.20
2012,06,28,04,50,12.20
2012,06,28,04,51,12.20
2012,06,28,04,52,12.20
2012,06,28,04,53,12.20
2012,06,28,04,54,12.20
2012,06,28,04,55,12.20
2012,06,28,04,56,12.20
2012,06,28,04,57,12.20
2012,06,28,04,58,12.20
2012,06,28,04,59,12.20
2012,06,28,05,00,12.20
2012,06,28,05,01,12.20
2012,06,28,05,02,12.20
2012,06,28,05,03,12.20
2012,06,28,05,04,12.20
2012,06,28,05,05,12.10
2012,06,28,05,06,12.10
2012,06,28,05,07,12.10
2012,06,28,05,08,12.10
2012,06,28,05,09,12.10
2012,06,28,05,10,12.10
2012,06,28,05,11,12.10
2012,06,28,05,12,12.10
2012,06,28,05,13,12.10
2012,06,28,05,14,12.10
2012,06,28,05,15,12.10
2012,06,28,05,16,12.20
2012,06,28,05,17,12.20
2012,06,28,05,18,12.20
2012,06,28,05,19,12.20
2012,06,28,05,20,12.20
2012,06,28,05,21,12.20
2012,06,28,05,22,12.20
2012,06,28,05,23,12.20
2012,06,28,05,24,12.20
2012,06,28,05,25,12.20
2012,06,28,05,26,12.20
2012,06,28,05,27,12.20
2012,06,28,05,28,12.10
2012,06,28,05,29,12.10
2012,06,28,05,30,12.10
2012,06,28,05,31,12.10
2012,06,28,05,32,12.10
2012,06,28,05,33,12.10
2012,06,28,05,34,12.10
2012,06,28,05,35,12.20
2012,06,28,05,36,12.40
2012,06,28,05,37,12.60
2012,06,28,05,38,12.90
2012,06,28,05,39,13.10
2012,06,28,05,40,13.40
2012,06,28,05,41,13.60
2012,06,28,05,42,13.80
2012,06,28,05,43,14.00
2012,06,28,05,44,14.20
2012,06,28,05,45,14.30
2012,06,28,05,46,14.40
2012,06,28,05,47,14.50
2012,06,28,05,48,14.60
2012,06,28,05,49,14.70
2012,06,28,05,50,14.80
2012,06,28,05,51,14.80
2012,06,28,05,52,14.80
2012,06,28,05,53,14.80
2012,06,28,05,54,14.90
2012,06,28,05,55,14.90
2012,06,28,05,56,15.00
2012,06,28,05,57,15.00
2012,06,28,05,58,15.00
2012,06,28,05,59,15.00
2012,06,28,06,00,15.00
2012,06,28,06,01,15.00
2012,06,28,06,02,15.00
2012,06,28,06,03,15.00
2012,06,28,06,04,15.00
2012,06,28,06,05,15.00
2012,06,28,06,06,15.00
2012,06,28,06,07,15.00
2012,06,28,06,08,15.00
2012,06,28,06,09,15.00
2012,06,28,06,10,15.00
2012,06,28,06,11,15.00
2012,06,28,06,12,15.00
2012,06,28,06,13,15.10
2012,06,28,06,14,15.10
2012,06,28,06,15,15.10
2012,06,28,06,16,15.20
2012,06,28,06,17,15.20
2012,06,28,06,18,15.20
2012,06,28,06,19,15.20
2012,06,28,06,20,15.20
2012,06,28,06,21,15.30
2012,06,28,06,22,15.30
2012,06,28,06,23,15.30
2012,06,28,06,24,15.20
2012,06,28,06,25,15.20
2012,06,28,06,26,15.20
2012,06,28,06,27,15.20
2012,06,28,06,28,15.20
2012,06,28,06,29,15.20
2012,06,28,06,30,15.20
2012,06,28,06,31,15.20
2012,06,28,06,32,15.20
2012,06,28,06,33,15.20
2012,06,28,06,34,15.20
2012,06,28,06,35,15.20
2012,06,28,06,36,15.20
2012,06,28,06,37,15.20
2012,06,28,06,38,15.20
2012,06,28,06,39,15.10
2012,06,28,06,40,15.10
2012,06,28,06,41,15.10
2012,06,28,06,42,15.10
2012,06,28,06,43,15.10
2012,06,28,06,44,15.10
2012,06,28,06,45,15.00
2012,06,28,06,46,15.10
2012,06,28,06,47,15.10
2012,06,28,06,48,15.10
2012,06,28,06,49,15.20
2012,06,28,06,50,15.20
2012,06,28,06,51,15.20
2012,06,28,06,52,15.30
2012,06,28,06,53,15.30
2012,06,28,06,54,15.30
2012,06,28,06,55,15.30
2012,06,28,06,56,15.40
2012,06,28,06,57,15.40
2012,06,28,06,58,15.40
2012,06,28,06,59,15.50
2012,06,28,07,00,15.50
2012,06,28,07,01,15.50
2012,06,28,07,02,15.50
2012,06,28,07,03,15.50
2012,06,28,07,04,15.50
2012,06,28,07,05,15.50
2012,06,28,07,06,15.50
2012,06,28,07,07,15.50
2012,06,28,07,08,15.40
2012,06,28,07,09,15.40
2012,06,28,07,10,15.40
2012,06,28,07,11,15.40
2012,06,28,07,12,15.40
2012,06,28,07,13,15.40
2012,06,28,07,14,15.50
2012,06,28,07,15,15.50
2012,06,28,07,16,15.50
2012,06,28,07,17,15.50
2012,06,28,07,18,15.60
2012,06,28,07,19,15.60
2012,06,28,07,20,15.60
2012,06,28,07,21,15.60
2012,06,28,07,22,15.60
2012,06,28,07,23,15.70
2012,06,28,07,24,15.70
2012,06,28,07,25,15.70
2012,06,28,07,26,15.70
2012,06,28,07,27,15.70
2012,06,28,07,28,15.70
2012,06,28,07,29,15.70
2012,06,28,07,30,15.70
2012,06,28,07,31,15.70
2012,06,28,07,32,15.70
2012,06,28,07,33,15.60
2012,06,28,07,34,15.60
2012,06,28,07,35,15.60
2012,06,28,07,36,15.60
2012,06,28,07,37,15.60
2012,06,28,07,38,15.60
2012,06,28,07,39,15.60
2012,06,28,07,40,15.60
2012,06,28,07,41,15.70
2012,06,28,07,42,15.70
2012,06,28,07,43,15.70
2012,06,28,07,44,15.80
2012,06,28,07,45,15.90
2012,06,28,07,46,15.90
2012,06,28,07,47,15.90
2012,06,28,07,48,16.00
2012,06,28,07,49,16.10
2012,06,28,07,50,16.20
2012,06,28,07,51,16.20
2012,06,28,07,52,16.20
2012,06,28,07,53,16.10
2012,06,28,07,54,16.10
2012,06,28,07,55,16.00
2012,06,28,07,56,16.00
2012,06,28,07,57,15.90
2012,06,28,07,58,15.80
2012,06,28,07,59,15.80
2012,06,28,08,00,15.80
2012,06,28,08,01,15.80
2012,06,28,08,02,15.80
2012,06,28,08,03,15.80
2012,06,28,08,04,15.70
2012,06,28,08,05,15.70
2012,06,28,08,06,15.70
2012,06,28,08,07,15.60
2012,06,28,08,08,15.60
2012,06,28,08,09,15.60
2012,06,28,08,10,15.60
2012,06,28,08,11,15.60
2012,06,28,08,12,15.50
2012,06,28,08,13,15.50
2012,06,28,08,14,15.50
2012,06,28,08,15,15.50
2012,06,28,08,16,15.50
2012,06,28,08,17,15.50
2012,06,28,08,18,15.50
2012,06,28,08,19,15.50
2012,06,28,08,20,15.50
2012,06,28,08,21,15.50
2012,06,28,08,22,15.50
2012,06,28,08,23,15.50
2012,06,28,08,24,15.50
2012,06,28,08,25,15.50
2012,06,28,08,26,15.60
2012,06,28,08,27,15.60
2012,06,28,08,28,15.60
2012,06,28,08,29,15.60
2012,06,28,08,30,15.60
2012,06,28,08,31,15.60
2012,06,28,08,32,15.60
2012,06,28,08,33,15.60
2012,06,28,08,34,15.60
2012,06,28,08,35,15.60
2012,06,28,08,36,15.70
2012,06,28,08,37,15.70
2012,06,28,08,38,15.70
2012,06,28,08,39,15.70
2012,06,28,08,40,15.80
2012,06,28,08,41,15.80
2012,06,28,08,42,15.80
2012,06,28,08,43,15.80
2012,06,28,08,44,15.80
2012,06,28,08,45,15.80
2012,06,28,08,46,15.70
2012,06,28,08,47,15.70
2012,06,28,08,48,15.70
2012,06,28,08,49,15.70
2012,06,28,08,50,15.70
2012,06,28,08,51,15.70
2012,06,28,08,52,15.70
2012,06,28,08,53,15.80
2012,06,28,08,54,15.80
2012,06,28,08,55,15.80
2012,06,28,08,56,15.70
2012,06,28,08,57,15.70
2012,06,28,08,58,15.70
2012,06,28,08,59,15.70
2012,06,28,09,00,15.70
2012,06,28,09,01,15.70
2012,06,28,09,02,15.70
2012,06,28,09,03,15.60
2012,06,28,09,04,15.60
2012,06,28,09,05,15.60
2012,06,28,09,06,15.60
2012,06,28,09,07,15.60
2012,06,28,09,08,15.60
2012,06,28,09,09,15.70
2012,06,28,09,10,15.70
2012,06,28,09,11,15.80
2012,06,28,09,12,15.80
2012,06,28,09,13,15.80
2012,06,28,09,14,15.80
2012,06,28,09,15,15.80
2012,06,28,09,16,15.80
2012,06,28,09,17,15.70
2012,06,28,09,18,15.70
2012,06,28,09,19,15.70
2012,06,28,09,20,15.80
2012,06,28,09,21,15.90
2012,06,28,09,22,15.90
2012,06,28,09,23,16.00
2012,06,28,09,24,15.90
2012,06,28,09,25,15.90
2012,06,28,09,26,15.80
2012,06,28,09,27,15.80
2012,06,28,09,28,15.80
2012,06,28,09,29,15.80
2012,06,28,09,30,15.80
2012,06,28,09,31,15.80
2012,06,28,09,32,15.80
2012,06,28,09,33,15.80
2012,06,28,09,34,15.80
2012,06,28,09,35,15.90
2012,06,28,09,36,16.00
2012,06,28,09,37,16.00
2012,06,28,09,38,16.10
2012,06,28,09,39,16.00
2012,06,28,09,40,16.00
2012,06,28,09,41,15.90
2012,06,28,09,42,15.90
2012,06,28,09,43,15.90
2012,06,28,09,44,16.00
2012,06,28,09,45,16.00
2012,06,28,09,46,16.00
2012,06,28,09,47,16.00
2012,06,28,09,48,15.90
2012,06,28,09,49,15.90
2012,06,28,09,50,15.90
2012,06,28,09,51,15.90
2012,06,28,09,52,15.90
2012,06,28,09,53,15.90
2012,06,28,09,54,15.90
2012,06,28,09,55,15.90
2012,06,28,09,56,15.90
2012,06,28,09,57,16.00
2012,06,28,09,58,16.00
2012,06,28,09,59,16.10
2012,06,28,10,00,16.10
2012,06,28,10,01,16.10
2012,06,28,10,02,16.00
2012,06,28,10,03,16.00
2012,06,28,10,04,15.90
2012,06,28,10,05,15.90
2012,06,28,10,06,15.90
2012,06,28,10,07,15.80
2012,06,28,10,08,15.80
2012,06,28,10,09,15.80
2012,06,28,10,10,15.80
2012,06,28,10,11,15.80
2012,06,28,10,12,15.80
2012,06,28,10,13,15.80
2012,06,28,10,14,15.90
2012,06,28,10,15,15.90
2012,06,28,10,16,15.90
2012,06,28,10,17,15.90
2012,06,28,10,18,15.90
2012,06,28,10,19,15.90
2012,06,28,10,20,15.90
2012,06,28,10,21,15.90
2012,06,28,10,22,16.00
2012,06,28,10,23,16.10
2012,06,28,10,24,16.10
2012,06,28,10,25,16.10
2012,06,28,10,26,16.10
2012,06,28,10,27,16.00
2012,06,28,10,28,15.90
2012,06,28,10,29,15.90
2012,06,28,10,30,15.80
2012,06,28,10,31,15.90
2012,06,28,10,32,15.90
2012,06,28,10,33,15.90
2012,06,28,10,34,15.90
2012,06,28,10,35,16.00
2012,06,28,10,36,16.00
2012,06,28,10,37,16.10
2012,06,28,10,38,16.10
2012,06,28,10,39,16.10
2012,06,28,10,40,16.20
2012,06,28,10,41,16.20
2012,06,28,10,42,16.30
2012,06,28,10,43,16.40
2012,06,28,10,44,16.50
2012,06,28,10,45,16.50
2012,06,28,10,46,16.60
2012,06,28,10,47,16.60
2012,06,28,10,48,16.60
2012,06,28,10,49,16.50
2012,06,28,10,50,16.50
2012,06,28,10,51,16.60
2012,06,28,10,52,16.60
2012,06,28,10,53,16.50
2012,06,28,10,54,16.50
2012,06,28,10,55,16.50
2012,06,28,10,56,16.40
2012,06,28,10,57,16.50
2012,06,28,10,58,16.60
2012,06,28,10,59,16.60
2012,06,28,11,00,16.60
2012,06,28,11,01,16.60
2012,06,28,11,02,16.50
2012,06,28,11,03,16.50
2012,06,28,11,04,16.40
2012,06,28,11,05,16.50
2012,06,28,11,06,16.50
2012,06,28,11,07,16.50
2012,06,28,11,08,16.60
2012,06,28,11,09,16.60
2012,06,28,11,10,16.60
2012,06,28,11,11,16.60
2012,06,28,11,12,16.60
2012,06,28,11,13,16.60
2012,06,28,11,14,16.60
2012,06,28,11,15,16.60
2012,06,28,11,16,16.60
2012,06,28,11,17,16.60
2012,06,28,11,18,16.50
2012,06,28,11,19,16.60
2012,06,28,11,20,16.60
2012,06,28,11,21,16.60
2012,06,28,11,22,16.60
2012,06,28,11,23,16.60
2012,06,28,11,24,16.60
2012,06,28,11,25,16.70
2012,06,28,11,26,16.70
2012,06,28,11,27,16.70
2012,06,28,11,28,16.70
2012,06,28,11,29,16.70
2012,06,28,11,30,16.60
2012,06,28,11,31,16.70
2012,06,28,11,32,16.70
2012,06,28,11,33,16.70
2012,06,28,11,34,16.70
2012,06,28,11,35,16.80
2012,06,28,11,36,16.80
2012,06,28,11,37,16.90
2012,06,28,11,38,16.90
2012,06,28,11,39,17.00
2012,06,28,11,40,17.10
2012,06,28,11,41,17.20
2012,06,28,11,42,17.20
2012,06,28,11,43,17.30
2012,06,28,11,44,17.30
2012,06,28,11,45,17.30
2012,06,28,11,46,17.30
2012,06,28,11,47,17.30
2012,06,28,11,48,17.20
2012,06,28,11,49,17.20
2012,06,28,11,50,17.10
2012,06,28,11,51,17.10
2012,06,28,11,52,17.00
2012,06,28,11,53,16.90
2012,06,28,11,54,16.70
2012,06,28,11,55,16.60
2012,06,28,11,56,16.60
2012,06,28,11,57,16.50
2012,06,28,11,58,16.40
2012,06,28,11,59,16.20
2012,06,28,12,00,16.10
2012,06,28,12,01,16.00
2012,06,28,12,02,15.90
2012,06,28,12,03,15.90
2012,06,28,12,04,15.80
2012,06,28,12,05,15.80
2012,06,28,12,06,15.70
2012,06,28,12,07,15.70
2012,06,28,12,08,15.60
2012,06,28,12,09,15.60
2012,06,28,12,10,15.60
2012,06,28,12,11,15.60
2012,06,28,12,12,15.70
2012,06,28,12,13,15.70
2012,06,28,12,14,15.70
2012,06,28,12,15,15.80
2012,06,28,12,16,15.80
2012,06,28,12,17,15.80
2012,06,28,12,18,15.90
2012,06,28,12,19,15.90
2012,06,28,12,20,15.90
2012,06,28,12,21,16.00
2012,06,28,12,22,16.00
2012,06,28,12,23,16.00
2012,06,28,12,24,16.10
2012,06,28,12,25,16.10
2012,06,28,12,26,16.20
2012,06,28,12,27,16.20
2012,06,28,12,28,16.30
2012,06,28,12,29,16.30
2012,06,28,12,30,16.50
2012,06,28,12,31,16.50
2012,06,28,12,32,16.60
2012,06,28,12,33,16.60
2012,06,28,12,34,16.60
2012,06,28,12,35,16.70
2012,06,28,12,36,16.70
2012,06,28,12,37,16.70
2012,06,28,12,38,16.70
2012,06,28,12,39,16.70
2012,06,28,12,40,16.70
2012,06,28,12,41,16.70
2012,06,28,12,42,16.70
2012,06,28,12,43,16.70
2012,06,28,12,44,16.70
2012,06,28,12,45,16.70
2012,06,28,12,46,16.70
2012,06,28,12,47,16.70
2012,06,28,12,48,16.70
2012,06,28,12,49,16.70
2012,06,28,12,50,16.60
2012,06,28,12,51,16.60
2012,06,28,12,52,16.60
2012,06,28,12,53,16.60
2012,06,28,12,54,16.60
2012,06,28,12,55,16.70
2012,06,28,12,56,16.70
2012,06,28,12,57,16.70
2012,06,28,12,58,16.70
2012,06,28,12,59,16.80
2012,06,28,13,00,16.80
2012,06,28,13,01,16.80
2012,06,28,13,02,16.80
2012,06,28,13,03,16.80
2012,06,28,13,04,16.80
2012,06,28,13,05,16.80
2012,06,28,13,06,16.90
2012,06,28,13,07,16.90
2012,06,28,13,08,16.90
2012,06,28,13,09,16.80
2012,06,28,13,10,16.70
2012,06,28,13,11,16.60
2012,06,28,13,12,16.60
2012,06,28,13,13,16.50
2012,06,28,13,14,16.40
2012,06,28,13,15,16.40
2012,06,28,13,16,16.30
2012,06,28,13,17,16.30
2012,06,28,13,18,16.30
2012,06,28,13,19,16.20
2012,06,28,13,20,16.20
2012,06,28,13,21,16.20
2012,06,28,13,22,16.20
2012,06,28,13,23,16.30
2012,06,28,13,24,16.30
2012,06,28,13,25,16.30
2012,06,28,13,26,16.30
2012,06,28,13,27,16.30
2012,06,28,13,28,16.30
2012,06,28,13,29,16.40
2012,06,28,13,30,16.40
2012,06,28,13,31,16.50
2012,06,28,13,32,16.50
2012,06,28,13,33,16.60
2012,06,28,13,34,16.70
2012,06,28,13,35,16.70
2012,06,28,13,36,16.70
2012,06,28,13,37,16.70
2012,06,28,13,38,16.80
2012,06,28,13,39,16.80
2012,06,28,13,40,16.80
2012,06,28,13,41,16.80
2012,06,28,13,42,16.80
2012,06,28,13,43,16.80
2012,06,28,13,44,16.90
2012,06,28,13,45,16.90
2012,06,28,13,46,16.90
2012,06,28,13,47,16.90
2012,06,28,13,48,16.90
2012,06,28,13,49,16.90
2012,06,28,13,50,16.90
2012,06,28,13,51,16.80
2012,06,28,13,52,16.80
2012,06,28,13,53,16.70
2012,06,28,13,54,16.70
2012,06,28,13,55,16.70
2012,06,28,13,56,16.60
2012,06,28,13,57,16.60
2012,06,28,13,58,16.60
2012,06,28,13,59,16.50
2012,06,28,14,00,16.50
2012,06,28,14,01,16.50
2012,06,28,14,02,16.50
2012,06,28,14,03,16.60
2012,06,28,14,04,16.60
2012,06,28,14,05,16.60
2012,06,28,14,06,16.60
2012,06,28,14,07,16.60
2012,06,28,14,08,16.60
2012,06,28,14,09,16.60
2012,06,28,14,10,16.60
2012,06,28,14,11,16.60
2012,06,28,14,12,16.60
2012,06,28,14,13,16.60
2012,06,28,14,14,16.60
2012,06,28,14,15,16.60
2012,06,28,14,16,16.60
2012,06,28,14,17,16.70
2012,06,28,14,18,16.70
2012,06,28,14,19,16.70
2012,06,28,14,20,16.70
2012,06,28,14,21,16.70
2012,06,28,14,22,16.70
2012,06,28,14,23,16.70
2012,06,28,14,24,16.70
2012,06,28,14,25,16.70
2012,06,28,14,26,16.80
2012,06,28,14,27,16.80
2012,06,28,14,28,16.80
2012,06,28,14,29,16.80
2012,06,28,14,30,16.80
2012,06,28,14,31,16.80
2012,06,28,14,32,16.80
2012,06,28,14,33,16.80
2012,06,28,14,34,16.80
2012,06,28,14,35,16.80
2012,06,28,14,36,16.80
2012,06,28,14,37,16.80
2012,06,28,14,38,16.80
2012,06,28,14,39,16.80
2012,06,28,14,40,16.80
2012,06,28,14,41,16.80
2012,06,28,14,42,16.80
2012,06,28,14,43,16.80
2012,06,28,14,44,16.80
2012,06,28,14,45,16.80
2012,06,28,14,46,16.70
2012,06,28,14,47,16.70
2012,06,28,14,48,16.70
2012,06,28,14,49,16.70
2012,06,28,14,50,16.70
2012,06,28,14,51,16.70
2012,06,28,14,52,16.60
2012,06,28,14,53,16.60
2012,06,28,14,54,16.50
2012,06,28,14,55,16.50
2012,06,28,14,56,16.40
2012,06,28,14,57,16.40
2012,06,28,14,58,16.30
2012,06,28,14,59,16.20
2012,06,28,15,00,16.20
2012,06,28,15,01,16.10
2012,06,28,15,02,16.10
2012,06,28,15,03,16.00
2012,06,28,15,04,16.00
2012,06,28,15,05,15.90
2012,06,28,15,06,15.90
2012,06,28,15,07,15.90
2012,06,28,15,08,15.80
2012,06,28,15,09,15.80
2012,06,28,15,10,15.80
2012,06,28,15,11,15.80
2012,06,28,15,12,15.80
2012,06,28,15,13,15.80
2012,06,28,15,14,15.70
2012,06,28,15,15,15.70
2012,06,28,15,16,15.70
2012,06,28,15,17,15.70
2012,06,28,15,18,15.70
2012,06,28,15,19,15.70
2012,06,28,15,20,15.70
2012,06,28,15,21,15.70
2012,06,28,15,22,15.70
2012,06,28,15,23,15.70
2012,06,28,15,24,15.60
2012,06,28,15,25,15.60
2012,06,28,15,26,15.50
2012,06,28,15,27,15.40
2012,06,28,15,28,15.40
2012,06,28,15,29,15.40
2012,06,28,15,30,15.40
2012,06,28,15,31,15.30
2012,06,28,15,32,15.30
2012,06,28,15,33,15.30
2012,06,28,15,34,15.30
2012,06,28,15,35,15.20
2012,06,28,15,36,15.20
2012,06,28,15,37,15.20
2012,06,28,15,38,15.20
2012,06,28,15,39,15.20
2012,06,28,15,40,15.20
2012,06,28,15,41,15.10
2012,06,28,15,42,15.10
2012,06,28,15,43,15.00
2012,06,28,15,44,15.00
2012,06,28,15,45,15.00
2012,06,28,15,46,15.00
2012,06,28,15,47,15.00
2012,06,28,15,48,15.00
2012,06,28,15,49,15.10
2012,06,28,15,50,15.00
2012,06,28,15,51,15.00
2012,06,28,15,52,15.00
2012,06,28,15,53,15.00
2012,06,28,15,54,15.00
2012,06,28,15,55,15.00
2012,06,28,15,56,15.00
2012,06,28,15,57,15.00
2012,06,28,15,58,15.00
2012,06,28,15,59,15.00
2012,06,28,16,00,14.90
2012,06,28,16,01,14.80
2012,06,28,16,02,14.70
2012,06,28,16,03,14.70
2012,06,28,16,04,14.60
2012,06,28,16,05,14.60
2012,06,28,16,06,14.50
2012,06,28,16,07,14.50
2012,06,28,16,08,14.40
2012,06,28,16,09,14.40
2012,06,28,16,10,14.30
2012,06,28,16,11,14.30
2012,06,28,16,12,14.20
2012,06,28,16,13,14.20
2012,06,28,16,14,14.10
2012,06,28,16,15,14.00
2012,06,28,16,16,13.90
2012,06,28,16,17,13.90
2012,06,28,16,18,13.80
2012,06,28,16,19,13.80
2012,06,28,16,20,13.80
2012,06,28,16,21,13.70
2012,06,28,16,22,13.70
2012,06,28,16,23,13.60
2012,06,28,16,24,13.60
2012,06,28,16,25,13.60
2012,06,28,16,26,13.60
2012,06,28,16,27,13.50
2012,06,28,16,28,13.50
2012,06,28,16,29,13.50
2012,06,28,16,30,13.50
2012,06,28,16,31,13.50
2012,06,28,16,32,13.50
2012,06,28,16,33,13.40
2012,06,28,16,34,13.40
2012,06,28,16,35,13.40
2012,06,28,16,36,13.40
2012,06,28,16,37,13.50
2012,06,28,16,38,13.50
2012,06,28,16,39,13.60
2012,06,28,16,40,13.60
2012,06,28,16,41,13.60
2012,06,28,16,42,13.60
2012,06,28,16,43,13.70
2012,06,28,16,44,13.70
2012,06,28,16,45,13.60
2012,06,28,16,46,13.60
2012,06,28,16,47,13.60
2012,06,28,16,48,13.60
2012,06,28,16,49,13.60
2012,06,28,16,50,13.60
2012,06,28,16,51,13.60
2012,06,28,16,52,13.70
2012,06,28,16,53,13.60
2012,06,28,16,54,13.50
2012,06,28,16,55,13.50
2012,06,28,16,56,13.40
2012,06,28,16,57,13.40
2012,06,28,16,58,13.40
2012,06,28,16,59,13.40
2012,06,28,17,00,13.40
2012,06,28,17,01,13.40
2012,06,28,17,02,13.40
2012,06,28,17,03,13.40
2012,06,28,17,04,13.40
2012,06,28,17,05,13.40
2012,06,28,17,06,13.40
2012,06,28,17,07,13.40
2012,06,28,17,08,13.50
2012,06,28,17,09,13.40
2012,06,28,17,10,13.50
2012,06,28,17,11,13.40
2012,06,28,17,12,13.40
2012,06,28,17,13,13.50
2012,06,28,17,14,13.50
2012,06,28,17,15,13.40
2012,06,28,17,16,13.40
2012,06,28,17,17,13.40
2012,06,28,17,18,13.40
2012,06,28,17,19,13.40
2012,06,28,17,20,13.40
2012,06,28,17,21,13.30